Location: Waning Moon II Observatory
(30.3730°N, 89.7620°W)
Time: 16:17:52
(UTC-06:00)

Daily predictions for brighter satellites

Satellite Brightness Start Highest point End
(mag) Time Altitude Azimuth Time Altitude Azimuth Time Altitude Azimuth
Cosmos 1844 Rocket 2.7 17:12:46 10° S 17:18:17 71° ESE 17:23:53 10° NNE
MOS 1 4.4 17:13:52 10° SSE 17:19:25 58° ENE 17:24:58 10° N
OTV 4 2.1 17:18:03 10° NW 17:20:28 21° N 17:22:53 10° ENE
Cosmos 1844 3.8 17:19:51 10° S 17:25:19 58° ESE 17:30:45 10° NNE
SL-27 R/B 4.0 17:29:26 10° NNE 17:31:53 17° ENE 17:34:19 10° ESE
SL-8 R/B 3.7 17:29:36 10° SW 17:34:20 72° SE 17:39:03 10° NE
ISS -1.4 17:32:20 10° W 17:35:03 23° NW 17:37:47 10° NNE
SKYMED 2 4.1 17:31:18 10° NNE 17:35:22 39° E 17:39:24 10° SSE
CORIOLIS 4.1 17:32:53 10° SSE 17:38:17 71° ENE 17:43:40 10° N
Cosmos 1455 Rocket 3.9 17:34:40 10° NNE 17:38:31 29° E 17:42:22 10° SE
SJ-7 4.4 17:34:42 10° SSE 17:38:53 74° ENE 17:43:06 10° N
Cosmos 2341 Rocket 4.4 17:36:57 10° NNW 17:43:06 69° W 17:49:16 10° S
Cosmos 2278 Rocket 2.5 17:38:17 10° S 17:43:40 48° ESE 17:49:05 10° NNE
Cosmos 1295 Rocket 4.5 17:37:50 10° N 17:43:59 88° E 17:50:04 10° S
CZ-4 R/B 4.4 17:41:44 10° SSE 17:45:50 68° ENE 17:49:57 10° N
Delta 2 Rocket 4.3 17:42:43 10° SW 17:46:15 33° SSE 17:49:26 14° E
Cosmos 1048 Rocket 4.2 17:40:58 10° NNW 17:46:18 80° WSW 17:51:38 10° S
COSMOS 2406 3.2 17:42:27 10° NNW 17:48:10 69° ENE 17:53:52 10° SSE
Cosmos 158 Rocket 3.9 17:43:57 10° NNW 17:49:17 72° ENE 17:54:29 10° SSE
Cosmos 1484 Rocket 3.0 17:49:14 10° SSE 17:52:50 41° ENE 17:56:23 10° N
CZ-2C R/B 2.8 17:48:04 10° S 17:52:53 67° W 17:57:53 10° NNW
KM-V1 3.4 17:51:17 10° WSW 17:53:19 42° SSE 17:54:10 24° ESE
SPOT 3 Rocket 4.0 17:48:51 10° S 17:54:00 65° WSW 17:59:10 10° NNW
MONITOR-E 4.2 17:52:08 10° SSE 17:55:16 62° ENE 17:58:26 10° N
Meteor 1-5 Rocket 4.4 17:53:19 10° NNW 17:58:44 74° W 18:04:18 10° S
Cosmos 1238 Rocket 2.5 17:57:20 10° SSW 18:00:26 64° W 18:03:21 10° N
Tiangong 1 1.7 18:02:59 10° SSW 18:05:49 37° SE 18:06:36 30° ESE
IDEFIX/ARIANE 42P 3.6 18:03:14 10° S 18:08:14 49° W 18:13:17 10° NNW
COSMOS 2441 4.4 18:05:38 10° SSE 18:10:28 87° WSW 18:15:22 10° NNW
Nadezhda 3 Rocket 4.1 18:05:46 10° SSE 18:11:40 51° E 18:17:39 10° NNE
Okean 1 3.3 18:08:52 10° S 18:12:53 89° W 18:16:57 10° N
COSMO-SKYMED 1 3.4 18:19:10 10° N 18:23:22 50° WNW 18:27:33 10° SSW
Hubble Space Telescope 2.1 18:20:46 10° W 18:24:33 34° SSW 18:27:01 18° SE
Meteor 2-21 4.5 18:20:41 10° N 18:26:45 56° E 18:32:44 10° SSE
Meteor 2-4 Rocket 4.4 18:23:32 10° SSE 18:27:45 30° ESE 18:27:45 30° ESE
Cosmos 1500 3.1 18:28:52 38° NNE 18:30:04 59° E 18:33:51 10° SSE
Meteor 1-28 Rocket 3.5 18:29:51 16° N 18:32:46 66° WNW 18:36:30 10° SSW
METEOR-M 4.2 18:30:08 10° SSE 18:35:16 51° ENE 18:40:26 10° N
Cosmos 1346 Rocket 3.0 18:32:27 10° SSW 18:36:23 70° W 18:38:33 25° N
NOAA 12 4.0 18:32:54 10° SSE 18:38:09 67° ENE 18:43:23 10° N
Cosmos 494 Rocket 4.1 18:45:06 10° NNW 18:50:20 73° WSW 18:55:33 10° S
Meteor 2-14 Rocket 4.3 18:45:35 10° N 18:51:43 67° E 18:57:48 10° SSE
OTV 4 3.2 18:54:20 10° WNW 18:55:03 16° NW 18:55:03 16° NW
Cosmos 2251 Rocket 4.3 18:52:11 10° NNW 18:57:21 51° WSW 19:02:28 10° S
Cosmos 1975 4.2 18:55:02 10° NNW 18:58:49 38° W 19:02:34 10° SSW
FALCON 9 R/B 3.1 18:38:12 10° W 18:59:44 74° NNW 19:01:52 50° NE
Okean 1-7 Rocket 3.9 18:56:01 10° SSW 19:00:32 65° W 19:01:25 51° NNW
ATLAS 2AS CENTAUR R/B 2.9 18:54:37 10° NNW 19:02:36 84° WSW 19:09:53 10° SSE
Cosmos 1025 Rocket 4.5 18:58:48 10° S 19:00:50 27° S 19:00:50 27° S
Meteor 2-21 Rocket 4.4 18:59:57 10° N 19:06:09 81° W 19:12:16 10° S
GEOS 3 Rocket 4.2 19:02:11 10° SSE 19:07:11 55° WSW 19:12:11 10° NW
Cosmos 2297 4.1 19:04:14 10° SSW 19:09:47 60° WNW 19:11:32 41° N
Meteor 2-16 Rocket 4.3 19:06:32 10° N 19:12:38 88° W 19:18:42 10° S
Cosmos 921 Rocket 4.0 19:09:07 10° SSW 19:12:15 42° WSW 19:12:15 42° WSW
Cosmos 1535 Rocket 4.3 19:10:23 10° N 19:16:43 86° E 19:22:55 10° S
ATLAS 3B CENTAUR R/B 2.7 19:06:54 10° W 19:21:27 76° S 19:22:04 71° SE
Cosmos 1241 Rocket 4.5 19:18:05 10° NNW 19:24:32 85° WNW 19:24:32 85° WNW
